STARLINK-5944 (56001 NORAD) Tracking and Keplerian Element Data

This shows tracking and keplerian element data for the satellite.

Feedback or suggestion? Click here.




ElementValue
Catalog56001
NameSTARLINK-5944
Epoch Orbit716
Epoch Day127.25001157
Epoch Year2023
RAAN296.1387
Inclination43.001
Eccentricity0.00014
Argument of Perigee271.3632
Mean Anonmoly272.8174
Mean Motion15.36431609
Decay Rate-0.00900221
L11 56001U 23042R 23127.25001157 -.00900221 00000+0 -26980-1 0 9990
L22 56001 43.0010 296.1387 0001400 271.3632 272.8174 15.36431609 7160



Live tracking and technical data element details for STARLINK-5944 (NORAD 56001). STARLINK-5944 can be tracked NOW for your location showing map with azimuth and elevation plus other details from your city location.







IsCatalogInMostPopularTable: catalog: 56001, numindb: -1

Insert: records affected: 1


GetName: 56001 STARLINK-5944

Hit Count: inserted at: Sat, 03 Jun 2023 18:38:00 GMT